Theta_e
315 315 315 315 314 314 314 313 313 313 313 312 312 313 312 312 314 315 313 312 314 318 320 319 319 319 317 316 320 319 328 328 327 325 324 315 318 312 311 313 311 310 310 307 311
315 315 315 315 315 314 314 314 313 313 313 313 313 313 312 313 315 316 314 313 316 319 319 319 318 318 316 314 317 324 327 326 322 321 321 317 317 315 314 312 312 310 307 307 310
316 316 316 315 315 315 315 314 314 314 313 313 313 313 312 314 317 314 314 313 316 318 318 317 316 317 317 313 314 318 325 321 320 318 318 318 317 313 315 316 314 313 310 307 307
318 317 316 316 316 316 315 315 314 314 313 313 313 313 312 315 319 314 314 316 317 318 318 315 314 317 314 314 312 317 315 318 317 314 316 318 314 315 314 318 312 311 308 307 307
320 319 318 317 317 316 316 315 314 314 314 313 313 313 315 314 314 314 314 315 317 318 316 315 314 314 315 312 313 314 313 314 313 312 312 312 314 315 313 312 309 307 308 309 308
315 318 320 319 318 317 316 315 315 314 314 313 313 312 315 314 315 314 315 315 316 317 316 315 314 312 312 312 314 312 312 311 312 312 312 312 311 311 311 308 308 308 309 309 309
315 314 315 319 320 318 316 315 314 314 314 313 313 311 314 313 314 314 315 315 315 316 316 314 313 314 312 313 311 311 313 312 312 311 312 311 311 313 310 308 309 309 308 307 307
313 313 313 315 320 319 315 315 314 314 313 313 312 311 310 314 314 313 315 315 315 314 315 313 313 311 312 311 311 312 311 314 312 312 310 311 316 308 307 309 311 309 308 307 307
312 311 313 314 317 319 315 314 314 313 313 313 312 311 310 312 313 313 314 314 314 314 314 314 313 311 311 313 315 311 313 311 310 311 311 311 315 311 307 308 310 309 308 307 307
315 309 310 312 313 317 316 314 314 313 312 312 314 311 311 312 312 313 313 314 312 312 313 312 310 313 308 312 316 315 311 309 309 309 311 312 313 312 308 307 309 308 308 307 307
318 310 309 310 313 315 317 314 310 309 312 310 310 310 310 311 311 312 312 312 311 310 314 310 315 316 313 308 309 309 310 310 309 308 310 309 309 310 309 306 307 307 307 307 307
320 313 314 312 312 316 316 313 312 313 315 313 309 310 311 311 311 310 312 311 311 312 310 312 314 312 309 310 311 311 311 311 309 308 309 309 312 310 309 309 308 308 308 307 306
321 314 314 315 314 316 314 314 315 315 312 311 310 310 310 310 311 309 310 309 310 311 311 312 312 310 311 310 311 310 310 310 311 309 307 309 315 311 310 308 308 307 306 305 306
321 315 314 316 313 312 315 315 315 314 309 310 313 312 309 309 311 309 309 310 310 311 309 311 310 311 311 311 310 312 309 310 310 312 311 307 317 313 310 311 309 310 307 306 306
320 315 315 316 314 312 313 315 312 308 311 309 312 310 308 311 309 310 310 310 310 310 311 311 310 311 311 311 309 310 308 308 311 312 312 311 314 316 309 313 312 311 309 308 307
319 315 316 315 314 316 312 315 310 310 313 312 310 310 310 310 310 309 310 308 308 310 309 310 307 309 310 307 308 307 312 313 313 315 319 311 312 316 315 313 312 311 309 308 307
317 316 316 315 310 313 313 310 312 311 309 312 310 309 309 310 310 310 310 310 311 311 312 311 310 307 307 310 309 310 312 319 322 320 320 311 313 317 311 311 312 312 310 309 307
317 317 315 313 314 314 311 309 312 310 309 310 309 308 310 310 310 309 308 309 308 307 308 311 310 308 306 308 310 309 311 319 321 319 317 310 317 319 310 308 309 309 308 308 308
318 317 315 315 314 315 307 313 310 309 309 310 309 310 310 309 310 310 307 307 307 306 311 310 310 305 305 305 308 310 313 309 314 312 316 315 314 315 311 310 309 310 309 311 310
318 315 313 314 314 312 310 316 311 308 310 309 312 309 309 308 310 309 308 308 309 306 308 310 312 306 305 305 305 309 308 312 313 320 321 316 315 321 314 314 310 309 310 311 310
316 312 310 312 313 306 316 315 313 310 310 310 310 309 308 308 308 308 309 309 308 306 307 307 311 309 307 306 308 308 308 309 311 314 321 321 324 314 316 314 311 310 310 311 310
309 316 307 310 306 304 314 314 312 312 309 310 308 309 308 307 308 308 309 308 307 306 309 307 308 309 309 305 303 305 308 310 318 315 311 315 322 312 311 310 309 309 309 309 308
312 311 306 306 307 308 311 316 313 312 310 311 310 310 308 308 311 308 308 308 306 307 309 308 309 311 310 308 306 307 305 307 309 310 312 323 324 310 309 308 307 308 308 308 309
309 313 309 307 306 306 313 314 317 313 311 310 311 309 309 310 307 309 309 309 306 307 310 310 307 311 314 312 309 308 306 307 311 314 313 315 317 315 313 311 308 307 307 308 309
310 314 312 310 309 310 310 311 315 317 311 309 311 311 310 311 309 310 309 310 309 310 309 308 311 307 307 310 308 308 307 308 310 310 316 314 313 316 314 313 311 309 306 306 308
314 313 311 311 310 310 310 310 313 314 312 313 310 310 309 310 311 311 309 309 311 308 307 305 311 307 311 309 308 309 308 307 310 308 308 308 311 310 311 309 309 309 307 307 307
310 307 312 314 312 311 311 311 310 312 311 313 311 310 309 309 308 309 308 308 309 309 308 307 309 309 311 311 311 313 312 308 307 307 311 311 314 308 311 309 311 310 308 308 307
Wind_Speed
10 10 11 11 11 11 10 10 10 10 10 10 10 11 12 11 7 3 3 4 4 6 6 7 6 6 5 3 4 2 3 3 5 5 2 4 3 1 1 4 3 5 2 2 9
9 9 10 11 11 12 12 12 11 11 10 10 10 11 12 11 6 3 4 4 3 4 5 9 5 6 3 3 3 4 2 5 3 3 2 5 4 5 3 3 3 3 3 3 18
9 9 10 11 12 13 13 13 13 12 11 10 9 10 12 8 2 1 5 4 3 4 5 3 2 2 4 3 4 1 2 4 3 2 3 4 3 5 4 4 8 7 6 10 15
10 10 10 11 12 13 14 13 13 13 12 11 10 10 10 3 1 0 4 3 4 4 4 5 5 3 3 3 2 3 1 2 2 2 3 3 4 2 6 4 2 7 5 13 17
11 11 11 11 12 13 13 13 13 13 12 11 9 9 3 3 4 1 2 2 3 3 7 3 4 2 3 2 2 3 2 1 1 2 2 3 4 4 7 8 2 5 8 13 17
12 13 13 13 13 13 13 14 14 13 13 9 7 7 2 1 2 1 3 3 4 4 4 5 2 2 5 2 2 2 2 1 1 1 0 2 2 0 2 2 5 6 8 11 18
13 14 15 15 15 14 14 14 14 13 11 7 5 4 1 8 2 1 2 4 5 3 3 3 3 2 3 3 1 2 1 2 1 0 0 1 3 7 2 0 3 7 7 8 15
15 15 15 16 16 16 14 14 14 13 7 4 3 2 5 2 3 3 2 3 4 5 5 3 5 5 3 3 4 3 3 2 2 0 2 1 5 3 2 2 5 7 7 8 13
17 15 14 15 17 17 14 14 13 5 2 3 2 1 7 2 3 4 3 3 4 4 5 4 5 3 3 3 3 6 1 1 4 1 2 1 6 3 2 4 7 7 9 9 10
18 15 14 14 15 18 14 13 4 2 1 1 1 3 3 2 2 4 4 4 4 3 3 6 4 3 3 3 1 1 1 2 3 2 1 3 12 9 8 7 12 10 9 10 10
18 15 14 14 14 16 16 2 4 3 0 6 4 3 2 1 2 2 3 5 3 7 2 4 4 2 3 4 4 4 2 2 3 1 3 3 7 15 7 4 7 9 10 11 12
17 14 13 13 13 13 10 3 4 1 6 9 6 4 6 3 2 1 4 3 3 3 1 4 1 3 5 4 3 2 1 3 4 1 1 4 12 6 4 4 3 5 8 11 7
15 12 13 13 13 9 4 3 2 2 1 7 5 5 4 7 4 4 6 3 3 3 3 4 1 5 2 2 3 1 2 2 3 4 1 5 5 3 2 3 3 5 5 6 9
14 10 11 12 9 6 3 2 5 5 4 6 3 4 5 6 2 0 4 4 2 8 6 3 0 4 2 1 4 2 3 2 2 3 2 3 2 4 2 5 3 4 3 6 7
13 9 6 9 10 4 3 10 4 3 4 2 2 0 2 7 6 2 1 4 6 5 5 3 5 3 2 3 3 3 2 1 1 1 2 1 0 4 2 2 3 2 2 3 3
9 9 6 7 8 8 10 7 1 5 7 1 1 2 5 3 2 2 2 6 3 4 3 0 1 2 3 3 2 5 3 4 3 1 1 1 1 4 4 5 3 2 2 2 2
10 9 9 9 3 5 13 1 3 4 2 4 3 3 2 3 3 3 5 4 5 4 3 2 2 0 2 4 2 3 4 2 1 1 4 2 1 8 4 5 5 5 3 2 2
11 12 12 14 10 7 7 4 5 4 5 2 3 3 6 4 1 2 5 4 2 4 3 6 4 6 3 2 5 4 4 4 4 3 2 2 5 4 5 3 5 4 3 3 3
13 13 13 17 13 5 3 4 8 7 6 10 4 4 4 2 4 3 6 6 9 10 7 5 3 1 2 1 2 4 3 1 5 2 1 2 6 7 5 5 5 7 4 5 4
18 6 8 7 15 6 3 11 6 4 5 3 8 5 8 6 5 6 8 5 6 11 3 5 2 1 0 2 3 2 3 3 1 4 4 3 5 4 6 10 7 7 8 6 4
9 3 4 16 17 3 6 7 6 5 4 6 8 5 6 8 7 5 5 4 5 4 2 6 3 0 1 6 8 3 2 3 1 2 3 2 6 6 12 13 14 11 9 8 6
8 3 7 29 3 3 8 5 4 5 3 4 4 3 8 9 7 6 9 6 7 8 8 5 4 4 6 1 3 3 6 6 4 4 1 1 6 1 5 7 7 10 9 6 6
3 2 10 5 5 4 4 6 3 5 6 6 7 5 3 8 3 8 5 2 8 9 10 8 3 2 3 3 3 4 5 4 4 3 6 5 5 2 3 4 7 8 8 7 6
3 4 3 3 1 4 6 6 21 4 4 5 4 4 4 4 3 5 6 3 7 5 4 6 4 6 7 4 5 5 5 5 5 4 5 6 5 5 7 7 7 8 8 8 7
4 5 6 7 9 7 10 10 17 15 5 8 4 8 7 6 4 5 4 2 2 6 2 4 6 6 5 3 4 5 5 9 10 6 8 3 10 10 8 10 11 11 7 7 9
5 4 2 3 8 20 7 10 14 19 10 12 6 8 8 7 9 11 8 6 7 3 8 3 4 5 3 3 6 5 7 12 13 4 9 6 18 13 8 4 6 12 10 13 14
9 3 2 8 6 12 17 17 19 11 8 20 13 6 8 7 8 3 6 2 5 11 9 7 6 4 5 1 3 7 16 13 7 7 13 13 27 5 6 10 14 13 11 15 14
Wind_Direction
21 16 10 9 4 359 356 353 351 349 347 343 345 346 342 339 344 358 36 334 333 348 355 358 23 52 65 67 53 127 75 154 186 167 166 153 171 135 132 134 213 193 218 32 164
20 15 8 3 0 357 353 350 348 346 343 342 341 340 341 337 339 31 352 345 2 6 7 22 5 15 49 31 27 70 103 194 180 180 170 175 191 186 174 182 232 239 211 150 168
7 7 4 360 355 352 351 349 345 342 340 339 336 336 338 337 18 315 356 8 25 15 14 34 48 55 59 24 3 111 132 175 183 162 161 173 215 173 177 243 224 209 203 165 176
350 353 354 353 348 346 348 346 342 339 337 334 333 334 336 347 153 333 355 25 26 17 38 44 39 57 69 61 347 92 124 160 155 138 136 173 133 226 202 226 101 222 168 169 184
333 338 341 341 339 340 340 339 336 334 334 329 330 337 7 31 250 358 6 17 29 40 54 66 60 111 113 104 67 79 186 138 121 118 128 132 237 245 248 243 200 125 164 184 195
322 321 326 332 333 330 332 332 331 328 327 324 325 338 27 275 185 83 36 64 53 58 55 54 133 160 107 84 98 151 138 88 105 78 84 225 266 25 269 25 171 178 198 201 205
323 318 317 318 325 325 323 325 324 321 318 313 319 339 73 237 189 175 83 73 57 69 104 78 119 78 123 112 331 89 81 8 14 349 171 108 257 233 267 140 214 215 220 219 223
318 314 313 316 318 321 318 319 319 316 306 297 305 320 246 235 219 199 154 107 78 71 95 81 91 102 66 124 31 57 57 45 332 35 351 75 277 263 32 192 241 234 231 231 230
326 315 307 308 314 319 318 317 314 312 288 282 278 137 274 301 210 196 165 128 109 84 70 81 77 81 41 86 37 13 120 346 330 344 333 117 274 255 169 214 257 241 236 235 246
329 320 310 307 313 318 322 316 299 284 214 212 254 34 281 246 164 159 145 128 101 87 31 41 50 73 48 67 204 244 24 303 252 318 333 275 272 282 276 241 254 254 236 236 240
327 322 313 308 313 320 335 12 9 345 309 196 207 205 286 165 147 133 131 117 79 56 96 8 68 226 205 149 131 127 126 256 259 143 320 251 278 286 300 255 267 248 239 241 242
324 322 321 313 317 316 327 65 96 32 311 252 228 266 246 204 102 250 159 112 85 143 112 28 218 201 119 132 111 98 71 296 289 305 3 343 294 276 274 267 234 254 249 248 250
318 315 317 321 316 312 300 132 299 283 232 290 194 185 194 162 211 229 141 130 118 127 155 155 235 133 125 115 113 176 183 235 236 321 197 317 293 324 293 310 280 253 249 253 248
308 307 323 322 308 321 273 284 301 163 37 275 240 265 135 135 226 272 160 134 63 182 157 221 284 148 116 175 133 294 176 141 301 11 262 2 257 284 294 305 260 278 266 264 259
296 290 305 307 306 282 318 329 151 137 330 254 195 117 46 149 143 359 21 59 163 164 120 249 160 153 159 221 154 218 103 80 81 85 4 297 98 261 325 225 226 235 261 272 255
269 280 278 280 265 278 319 326 204 54 252 248 129 154 110 38 69 113 87 49 126 98 41 114 322 153 177 70 74 148 93 50 57 45 335 360 122 268 193 194 194 224 258 271 277
249 251 258 246 233 305 328 71 62 167 311 204 192 156 119 144 110 125 151 155 155 116 212 346 224 114 135 103 35 84 64 355 353 349 222 18 11 250 232 220 186 180 206 253 271
240 223 235 249 236 314 355 64 189 221 196 135 113 82 172 158 195 115 120 193 233 99 124 168 265 178 179 196 178 178 159 167 224 205 272 14 233 245 222 232 226 262 261 280 261
217 214 237 244 239 269 70 196 202 198 175 152 94 128 214 212 156 145 192 201 202 177 177 145 264 68 71 122 130 177 184 166 105 31 343 237 281 280 220 269 240 232 242 234 224
191 201 240 233 205 146 95 220 220 206 131 137 168 147 181 197 162 181 188 209 201 188 169 197 109 337 151 120 41 163 144 92 18 175 242 262 273 235 203 214 217 222 221 230 233
176 131 209 174 150 87 204 215 254 245 178 160 197 140 182 172 176 194 215 266 210 155 142 142 136 315 86 204 179 133 188 63 139 166 184 272 259 211 201 195 193 206 209 211 219
151 199 166 156 131 190 210 192 214 225 162 256 135 136 178 169 169 212 214 228 166 146 173 195 135 175 197 223 171 178 188 163 138 198 101 146 275 224 229 208 189 201 206 209 224
171 172 168 185 188 209 248 218 265 199 190 191 214 203 177 168 197 199 190 230 164 157 165 182 208 96 2 13 352 218 199 143 106 105 197 151 262 345 269 230 217 210 214 213 218
139 181 125 234 257 214 163 207 215 236 244 192 193 135 129 176 244 199 225 219 181 205 184 117 164 181 194 188 128 193 189 183 153 148 166 226 284 277 230 222 215 222 225 215 213
194 217 186 183 217 220 185 186 205 215 230 178 217 189 170 169 155 206 222 125 174 208 173 166 211 184 240 207 174 192 174 180 204 188 188 236 212 238 225 213 217 221 208 214 227
198 178 185 162 179 194 212 212 200 205 177 215 202 193 185 179 187 205 156 199 198 189 164 187 212 158 261 180 210 245 215 194 217 233 270 296 270 213 231 231 218 220 204 217 223
198 175 241 166 177 182 213 201 206 186 229 227 202 204 205 220 208 216 200 198 183 161 179 157 142 126 258 49 148 279 221 190 187 207 208 224 243 166 227 223 232 227 210 220 219